Погода в Таклобане

Филиппины     11°13′45″N   124°59′53″E
темп.,
°C
ветер,
м/с
пор.,
м/с
влажн.,
%
обл.,
%
осадки,
мм/ч
давл.,
гПа
погр.,
м
14 мая, пт
пт1423:00+25всв139399 2.9 1009197
02:00+24св129447 5.7 1008142
05:00+24ссз119532 3.2 100950
08:00+27всв258517 5.8 1010459
11:00+29в468354 4.2 1009773
14:00+28вюв478696 10.4 1007602
17:00+26вюв3789100 8.1 1008329
20:00+26вюв2489100 14.3 1010271
15 мая, сб
сб1523:00+25в239197 5.8 1010178
02:00+25в239077 8.8 1008195
05:00+25в129279 2.1 1009156
08:00+28в268486 2.8 1010605
11:00+30юв357499 1.9 1009768
14:00+28ююв468292 4.8 1007359
17:00+27вюв358695 4.1 1008268
20:00+26в139183 6.0 1009114
16 мая, вс
вс1623:00+25в129230 2.3 100993
02:00+25всв119468 5.0 100866
05:00+25ссв119441 2.3 100972
08:00+28в258529 5.8 1010468
11:00+29юв358195 3.4 1009531
14:00+28вюв2583100 6.4 1008434
17:00+27в2588100 1.6 1008330
20:00+26всв1290100 2.0 1009154
17 мая, пн
пн1723:00+25ссв119482 2.1 101053
02:00+25с119490 3.6 100890
05:00+25ссв1193100 0.2 100890
08:00+28в248497 0.5 1010577
11:00+30ююв357069 1.1 1008809
14:00+31ююв356958 2.4 1006637
17:00+29в25785 1.2 1007372
20:00+26всв2488100 1.4 1009207
18 мая, вт
вт1823:00+25с1292100 1.2 1009101
02:00+24ссз119690 6.1 100892
05:00+24сз1296100 0.4 100899
08:00+28св148485 1.0 1009448
11:00+29вюв2484100 4.7 1008517
14:00+27вюв2589100 11.1 1007300
17:00+25вюв3896100 7.1 1008472
20:00+24ю1295100 18.9 1008166